STARLINK-11488, 62222

Orbit data source: Space-Track

STARLINK-11488, 62222 is a payload satellite owned by SpaceX/Seattle (US) in LEO that was launched on Thu, 05 Dec 2024 UTC via an FALCON 9 launch vehicle from the Air Force Western Test Range (AFWTR). Payload-class satellites include a variety of spacecraft equipped with specific instruments for various scientific and technological missions. These include communications satellites like Starlink; space stations such as the ISS; scientific satellites like the Hubble; Earth observation satellites from companies like Planet Labs, Umbra, and HawkEye 360; GPS; miniature CubeSats for education and research; and military/defense satellites.

Loading next visibility...
Identifier
62222, 2024-231E
Orbit
LEO
Last TLE update
7 hours ago
Origin
Manufacturer
SpaceX/Seattle
Mission
Operational Commercial Communications
Bus & Motor
STARLINK V2M, Unknown motor
Mass
730 kg wet, ~700 kg dry
Launch date (UTC)
2024-12-05 (7 months ago)
Launch vehicle
FALCON 9
Launch site
Air Force Western Test Range (AFWTR)
Object type
Payload
Rocket body
Debris
Shape & HBR
Box + 2 Pan, 29 m
Radar Cross Section
36.964 m², Large (>1 m²)

Expand to show TLE details & history

TLE from 7 hours ago
0 STARLINK-11488
1 62222U 24231E   25192.08902021  .00177116  00000-0  14304-2 0  9994
2 62222  53.1563 212.3969 0001380 104.2977 255.8194 15.69800694 35205
Epoch: 2025-07-11T02:08Z
TLE epoch observation values (Epoch: 2025-07-11T02:08:11.346Z)
Latitude
-0.00002°
Longitude
-108.89635°
Altitude
360.61 km
Speed
7.694 km/s
True Right ascension
14h 09m 35s
True Declination
0° 00' 00"
Sunlit
Object was in daylight at epoch
Visualization orbit readout
Latitude
-38.63729°
Longitude
106.20097°
Altitude
372.303 km
Speed
7.686 km/s
Apparent Right ascension
06h 54m 02s
Apparent Declination
-45° 43' 06"
Sunlit
Object is in daylight
Visualization observer readout
Local Sidereal Time
21:31:20
Azimuth
114.596° SE
Elevation
-60.882°
Doppler factor
1
Orbital elements
Apogee altitude
360.658 km
Perigee altitude
358.799 km
Semi-major axis
6,737.866 km
Eccentricity
0.00014
Inclination
53.1563°
RAAN
212.3969°
Arg. of periapsis
104.2977°
True anomaly
Unknown
Mean anomaly
255.8194°
Eccentric anomaly
Unknown
Mean motion
3.92428 °/min
Orbital period
91.74 mins
BSTAR
0.0014304
Loading maneuver chart data...
Loading SW <> Apogee altitude chart data...
Loading historical data...
Loading historical data...
Loading historical data...
Loading historical data...
Loading historical data...
Loading historical data...
Loading historical data...

STARLINK-11488 Visibility forecast

Observer location: undefined°, undefined°

Span
Click to sort rows by Start time (UTC) header in descending order
Start Az.
Max El. time (UTC)
Max El. Az.
Max El.
End time (UTC)
End Az.
4 mins2025-07-11 10:14:40.241Z337.752° N2025-07-11 10:16:40.241Z30.446° NE23.318°2025-07-11 10:18:40.241Z83.925° E
|